Back to catalog

COSMOS 1867 COOLANT

LostLEO
NORAD 43327·DEBRIS·🇷🇺 Russia

Launched Jul 10, 1987 from Baikonur Cosmodrome

Loading…

Next Passes (next 24 hours)

TLE

StaleSource: Space-Track

Epoch: Apr 20, 2024, 05:31 UTC

1 43327U 87060AU  24111.22997638  .00002857  00000-0  10576-2 0  9998
2 43327  65.0073  55.3841 0020823 271.1956  88.6744 14.33837929402545

Track COSMOS 1867 COOLANT in real time with AllMySat

Download on the App Store